Weather History for Naples, Italy

Change the Weather History Date:

Sunday, January 6, 2013

  Actual Average Record
Temperature  
Mean Temperature 51 °F -  
Max Temperature 60 °F 54 °F 66 °F (2001)
Min Temperature 42 °F 39 °F 32 °F (2002)
Degree Days  
Heating Degree Days 14    
Growing Degree Days 1 (Base 50)    
Moisture  
Dew Point 43 °F    
Average Humidity 72    
Maximum Humidity 93    
Minimum Humidity 42    
Precipitation  
Precipitation 0.00 in 0.14 in - ()
Sea Level Pressure  
Sea Level Pressure 30.13 in    
Wind  
Wind Speed 5 mph ()    
Max Wind Speed 12 mph    
Max Gust Speed -    
Visibility 4.6 miles    
Events      
Averages and records for this station are not official NWS values.
T = Trace of Precipitation, MM = Missing Value Source: Averaged Metar Reports

Daily Weather History Graph

Daily Weather History Graph

Search for Another Location

Airport:

Trip Planner

Search our weather history database for the weather conditions in past years. The results will help you decide how hot, cold, wet, or windy it might be!

Date:

Astronomy

Jan. 06, 2013 Rise Set
Actual Time 7:27 AM CET 4:50 PM CET
Civil Twilight 6:56 AM CET 5:20 PM CET
Nautical Twilight 6:22 AM CET 5:55 PM CET
Astronomical Twilight 5:49 AM CET 6:28 PM CET
Moon 1:20 AM CET (1/6) 12:07 PM CET (1/6)
Length of Visible Light 10h 24m
Length of Day
9h 22m
Waning Crescent, 36% of the Moon is Illuminated
Jan 6
Waning Crescent
Jan 11
New
Jan 19
First Quarter
Jan 27
Full
Feb 3
Last Quarter

Hourly Weather History & Observations

Time (CET) Temp. Windchill Dew Point Humidity Pressure Visibility Wind Dir Wind Speed Gust Speed Precip Events Conditions
12:20 AM 42.8 °F 40.1 °F 39.2 °F 87% 30.12 in 3.7 mi North 4.6 mph - N/A   Unknown
12:50 AM 42.8 °F 39.3 °F 41.0 °F 93% 30.12 in 3.7 mi NW 5.8 mph - N/A   Unknown
1:20 AM 48.2 °F - 42.8 °F 82% 30.12 in 3.7 mi North 8.1 mph - N/A   Unknown
1:50 AM 46.4 °F 44.3 °F 41.0 °F 81% 30.12 in 3.7 mi NNW 4.6 mph - N/A   Unknown
2:20 AM 46.4 °F 42.9 °F 41.0 °F 81% 30.12 in 3.7 mi NNW 6.9 mph - N/A   Unknown
2:50 AM 46.4 °F 44.3 °F 41.0 °F 81% 30.12 in 3.7 mi NNW 4.6 mph - N/A   Unknown
3:20 AM 48.2 °F - 41.0 °F 76% 30.12 in 5.0 mi NNE 5.8 mph - N/A   Unknown
3:50 AM 50.0 °F - 41.0 °F 71% 30.12 in 5.0 mi NE 9.2 mph - N/A   Unknown
4:20 AM 51.8 °F - 41.0 °F 67% 30.12 in - NE 9.2 mph - N/A   Clear
4:50 AM 48.2 °F - 39.2 °F 71% 30.12 in - North 5.8 mph - N/A   Clear
5:20 AM 46.4 °F 43.5 °F 39.2 °F 76% 30.12 in - North 5.8 mph - N/A   Clear
5:50 AM 48.2 °F - 39.2 °F 71% 30.12 in - NE 10.4 mph - N/A   Clear
6:50 AM 50.0 °F - 41.0 °F 71% 30.15 in - NE 8.1 mph - N/A   Clear
7:20 AM 51.8 °F - 41.0 °F 67% 30.15 in - North 5.8 mph - N/A   Clear
7:50 AM 50.0 °F - 41.0 °F 71% 30.18 in - NNE 5.8 mph - N/A   Clear
8:20 AM 50.0 °F - 41.0 °F 71% 30.18 in - NNE 3.5 mph - N/A   Clear
8:50 AM 50.0 °F - 41.0 °F 71% 30.18 in - North 3.5 mph - N/A   Clear
9:20 AM 53.6 °F - 42.8 °F 67% 30.18 in - NNW 4.6 mph - N/A   Clear
9:50 AM 53.6 °F - 42.8 °F 67% 30.18 in - NNW 4.6 mph - N/A   Clear
10:20 AM 55.4 °F - 42.8 °F 63% 30.18 in - NNE 6.9 mph - N/A   Clear
10:50 AM 57.2 °F - 42.8 °F 59% 30.18 in - NNE 6.9 mph - N/A   Clear
11:20 AM 59.0 °F - 41.0 °F 51% 30.18 in - NNE 5.8 mph - N/A   Clear
11:50 AM 60.8 °F - 39.2 °F 45% 30.18 in - North 5.8 mph - N/A   Clear
12:20 PM 60.8 °F - 37.4 °F 42% 30.15 in - NNW 4.6 mph - N/A   Clear
12:50 PM 60.8 °F - 37.4 °F 42% 30.15 in - NNW 6.9 mph - N/A   Clear
1:20 PM 60.8 °F - 39.2 °F 45% 30.12 in - WNW 9.2 mph - N/A   Clear
1:50 PM 60.8 °F - 41.0 °F 48% 30.12 in - WNW 10.4 mph - N/A   Clear
2:20 PM 59.0 °F - 41.0 °F 51% 30.12 in - West 11.5 mph - N/A   Clear
2:50 PM 59.0 °F - 44.6 °F 59% 30.12 in - WNW 11.5 mph - N/A   Clear
3:20 PM 59.0 °F - 46.4 °F 63% 30.12 in - WNW 10.4 mph - N/A   Clear
3:50 PM 57.2 °F - 46.4 °F 67% 30.12 in - WNW 10.4 mph - N/A   Clear
4:20 PM 57.2 °F - 46.4 °F 67% 30.12 in - WNW 9.2 mph - N/A   Clear
4:50 PM 57.2 °F - 48.2 °F 72% 30.12 in - NW 5.8 mph - N/A   Clear
5:20 PM 55.4 °F - 48.2 °F 77% 30.12 in - Variable 1.2 mph - N/A   Clear
5:50 PM 55.4 °F - 48.2 °F 77% 30.12 in - Variable 2.3 mph - N/A   Clear
6:20 PM 53.6 °F - 48.2 °F 82% 30.12 in - Variable 1.2 mph - N/A   Clear
6:50 PM 53.6 °F - 48.2 °F 82% 30.12 in 5.0 mi Variable 1.2 mph - N/A   Unknown
7:20 PM 53.6 °F - 48.2 °F 82% 30.12 in 5.0 mi Variable 2.3 mph - N/A   Unknown
7:50 PM 51.8 °F - 48.2 °F 88% 30.12 in 5.0 mi Variable 2.3 mph - N/A   Unknown
8:20 PM 51.8 °F - 46.4 °F 82% 30.12 in 5.0 mi Variable 1.2 mph - N/A   Unknown
8:50 PM 51.8 °F - 46.4 °F 82% 30.12 in 5.0 mi Variable 2.3 mph - N/A   Unknown
9:20 PM 51.8 °F - 46.4 °F 82% 30.09 in 5.0 mi Variable 2.3 mph - N/A   Unknown
9:50 PM 50.0 °F - 46.4 °F 87% 30.09 in 5.0 mi SW 2.3 mph - N/A   Partly Cloudy
10:20 PM 50.0 °F - 46.4 °F 87% 30.09 in 5.0 mi WSW 3.5 mph - N/A   Scattered Clouds
10:50 PM 53.6 °F - 50.0 °F 88% 30.09 in 5.0 mi SW 3.5 mph - N/A   Scattered Clouds
11:20 PM 53.6 °F - 48.2 °F 82% 30.09 in 5.0 mi Variable 2.3 mph - N/A   Scattered Clouds
11:50 PM 51.8 °F - 48.2 °F 88% 30.09 in 5.0 mi Variable 2.3 mph - N/A   Scattered Clouds